When you browse on this site, cookies collect data to enhance your experience and personalize the content and advertising you see.
Visit our Privacy Policy to learn more. By continuing to use the site, you agree to this use of cookies and data.
  • în România
  • Lista ţărilor
  • Pe 7 zile
  • Temperatura apei
  • Hartă satelitară
  • Meteo pe hartă
  • Widget-uri
  • user-avatar
    Intrare

    Meteo pe oră la Córdoba

    Astăzi, 22 Ianuarie, Marţi

    Timp Temperatura Precipitaţii Vânt Presiune Umiditate
    00:00 +25°C° 0 mm 3 m/s 722 mmHg 73%
    01:00 +25°C° 0 mm 2 m/s 722 mmHg 74%
    02:00 +25°C° 0 mm 2 m/s 722 mmHg 76%
    03:00 +24°C° 0 mm 2 m/s 722 mmHg 77%
    04:00 +24°C° 0 mm 2 m/s 721 mmHg 78%
    05:00 +24°C° 0 mm 2 m/s 721 mmHg 79%
    06:00 +26°C° 0 mm 3 m/s 722 mmHg 72%
    07:00 +28°C° 0 mm 3 m/s 722 mmHg 65%
    08:00 +30°C° 0 mm 4 m/s 722 mmHg 59%
    09:00 +33°C° 0 mm 4 m/s 722 mmHg 53%
    10:00 +35°C° 0 mm 5 m/s 722 mmHg 47%
    11:00 +36°C° 0 mm 5 m/s 722 mmHg 42%
    12:00 +37°C° 0 mm 5 m/s 722 mmHg 40%
    13:00 +39°C° 0 mm 6 m/s 721 mmHg 39%
    14:00 +39°C° 0 mm 6 m/s 720 mmHg 37%
    15:00 +39°C° 0 mm 5 m/s 720 mmHg 36%
    16:00 +40°C° 0 mm 5 m/s 720 mmHg 36%
    17:00 +40°C° 0 mm 5 m/s 719 mmHg 35%
    18:00 +37°C° 0 mm 4 m/s 719 mmHg 41%
    19:00 +35°C° 0 mm 4 m/s 720 mmHg 46%
    20:00 +33°C° 0 mm 3 m/s 720 mmHg 52%
    21:00 +31°C° 0 mm 2 m/s 720 mmHg 58%
    22:00 +29°C° 0 mm 2 m/s 721 mmHg 65%
    23:00 +28°C° 0 mm 1 m/s 721 mmHg 71%

    Mâine, 23 Ianuarie, Miercuri

    Timp Temperatura Precipitaţii Vânt Presiune Umiditate
    00:00 +28°C° 0.4 mm 1 m/s 721 mmHg 73%
    01:00 +27°C° 0.4 mm 1 m/s 721 mmHg 74%
    02:00 +27°C° 0.4 mm 1 m/s 721 mmHg 76%
    03:00 +27°C° 0 mm 1 m/s 721 mmHg 76%
    04:00 +27°C° 0 mm 1 m/s 721 mmHg 76%
    05:00 +27°C° 0 mm 1 m/s 720 mmHg 76%
    06:00 +28°C° 0 mm 1 m/s 721 mmHg 71%
    07:00 +29°C° 0 mm 1 m/s 721 mmHg 67%
    08:00 +31°C° 0 mm 1 m/s 722 mmHg 62%
    09:00 +31°C° 0 mm 1 m/s 722 mmHg 64%
    10:00 +31°C° 0 mm 2 m/s 722 mmHg 65%
    11:00 +31°C° 0 mm 2 m/s 722 mmHg 66%
    12:00 +32°C° 0 mm 2 m/s 722 mmHg 61%
    13:00 +34°C° 0 mm 3 m/s 722 mmHg 56%
    14:00 +36°C° 0 mm 3 m/s 721 mmHg 51%
    15:00 +36°C° 0 mm 3 m/s 721 mmHg 49%
    16:00 +36°C° 0 mm 3 m/s 721 mmHg 47%
    17:00 +37°C° 0 mm 4 m/s 720 mmHg 46%
    18:00 +35°C° 0 mm 3 m/s 720 mmHg 53%
    19:00 +33°C° 0 mm 3 m/s 721 mmHg 61%
    20:00 +30°C° 0 mm 3 m/s 721 mmHg 68%
    21:00 +29°C° 0.1 mm 2 m/s 721 mmHg 72%
    22:00 +28°C° 0.1 mm 2 m/s 722 mmHg 76%
    23:00 +28°C° 0.1 mm 2 m/s 722 mmHg 80%

    Poimâine, 24 Ianuarie, Joi

    Timp Temperatura Precipitaţii Vânt Presiune Umiditate
    00:00 +27°C° 1.3 mm 1 m/s 722 mmHg 84%
    01:00 +26°C° 1.3 mm 1 m/s 722 mmHg 88%
    02:00 +25°C° 1.3 mm 1 m/s 722 mmHg 92%
    03:00 +25°C° 0.3 mm 1 m/s 721 mmHg 93%
    04:00 +25°C° 0.3 mm 1 m/s 721 mmHg 93%
    05:00 +25°C° 0.3 mm 1 m/s 721 mmHg 94%
    06:00 +26°C° 0 mm 1 m/s 722 mmHg 90%
    07:00 +27°C° 0 mm 2 m/s 722 mmHg 86%
    08:00 +28°C° 0 mm 3 m/s 722 mmHg 82%
    09:00 +30°C° 0 mm 4 m/s 722 mmHg 73%
    10:00 +33°C° 0 mm 4 m/s 722 mmHg 64%
    11:00 +34°C° 0 mm 5 m/s 722 mmHg 56%
    12:00 +36°C° 0 mm 5 m/s 721 mmHg 52%
    13:00 +38°C° 0 mm 6 m/s 721 mmHg 49%
    14:00 +39°C° 0 mm 6 m/s 720 mmHg 45%
    15:00 +39°C° 0 mm 6 m/s 720 mmHg 46%
    16:00 +39°C° 0 mm 6 m/s 719 mmHg 48%
    17:00 +38°C° 0 mm 6 m/s 719 mmHg 49%
    18:00 +35°C° 0 mm 5 m/s 719 mmHg 58%
    19:00 +33°C° 0 mm 4 m/s 719 mmHg 67%
    20:00 +30°C° 0 mm 4 m/s 720 mmHg 76%
    21:00 +29°C° 0 mm 3 m/s 720 mmHg 79%
    22:00 +28°C° 0 mm 2 m/s 720 mmHg 82%
    23:00 +28°C° 0 mm 2 m/s 720 mmHg 86%

    25 Ianuarie, Vineri

    Timp Temperatura Precipitaţii Vânt Presiune Umiditate
    00:00 +28°C° 0 mm 2 m/s 719 mmHg 85%
    01:00 +27°C° 0 mm 2 m/s 719 mmHg 85%
    02:00 +27°C° 0 mm 2 m/s 718 mmHg 85%
    03:00 +27°C° 0 mm 2 m/s 718 mmHg 86%
    04:00 +27°C° 0 mm 2 m/s 718 mmHg 86%
    05:00 +26°C° 0 mm 2 m/s 718 mmHg 87%
    06:00 +28°C° 0 mm 3 m/s 719 mmHg 81%
    07:00 +29°C° 0 mm 3 m/s 719 mmHg 74%
    08:00 +32°C° 0 mm 4 m/s 719 mmHg 68%
    09:00 +34°C° 0 mm 5 m/s 719 mmHg 58%
    10:00 +38°C° 0 mm 6 m/s 719 mmHg 48%
    11:00 +40°C° 0 mm 7 m/s 719 mmHg 39%
    12:00 +43°C° 0 mm 7 m/s 718 mmHg 34%
    13:00 +45°C° 0 mm 7 m/s 718 mmHg 30%
    14:00 +46°C° 0 mm 6 m/s 718 mmHg 25%
    15:00 +46°C° 0 mm 6 m/s 717 mmHg 26%
    16:00 +45°C° 0 mm 5 m/s 717 mmHg 27%
    17:00 +43°C° 0 mm 4 m/s 717 mmHg 28%
    18:00 +42°C° 0 mm 4 m/s 717 mmHg 31%
    19:00 +40°C° 0 mm 4 m/s 717 mmHg 33%
    20:00 +38°C° 0 mm 4 m/s 717 mmHg 36%
    21:00 +35°C° 0.8 mm 4 m/s 718 mmHg 46%
    22:00 +33°C° 0.8 mm 4 m/s 718 mmHg 56%
    23:00 +30°C° 0.8 mm 4 m/s 718 mmHg 66%

    26 Ianuarie, Sâmbătă

    Timp Temperatura Precipitaţii Vânt Presiune Umiditate
    00:00 +29°C° 1 mm 3 m/s 719 mmHg 74%
    01:00 +28°C° 1 mm 3 m/s 719 mmHg 82%
    02:00 +27°C° 1 mm 2 m/s 719 mmHg 90%
    03:00 +27°C° 5.1 mm 2 m/s 719 mmHg 91%
    04:00 +27°C° 5.1 mm 3 m/s 719 mmHg 92%
    05:00 +26°C° 5.1 mm 3 m/s 719 mmHg 93%
    06:00 +26°C° 1.3 mm 3 m/s 720 mmHg 90%
    07:00 +26°C° 1.3 mm 3 m/s 720 mmHg 86%
    08:00 +26°C° 1.3 mm 2 m/s 721 mmHg 83%
    09:00 +26°C° 5.1 mm 3 m/s 721 mmHg 85%
    10:00 +26°C° 5.1 mm 4 m/s 721 mmHg 87%
    11:00 +25°C° 5.1 mm 4 m/s 721 mmHg 89%
    12:00 +26°C° 1.8 mm 3 m/s 721 mmHg 87%
    13:00 +26°C° 1.8 mm 2 m/s 721 mmHg 85%
    14:00 +26°C° 1.8 mm 1 m/s 721 mmHg 83%
    15:00 +27°C° 0.3 mm 1 m/s 720 mmHg 84%
    16:00 +27°C° 0.3 mm 1 m/s 720 mmHg 85%
    17:00 +27°C° 0.3 mm 1 m/s 720 mmHg 86%
    18:00 +26°C° 0.1 mm 1 m/s 720 mmHg 88%
    19:00 +26°C° 0.1 mm 1 m/s 720 mmHg 91%
    20:00 +26°C° 0.1 mm 1 m/s 721 mmHg 93%
    21:00 +26°C° 0.1 mm 1 m/s 721 mmHg 93%
    22:00 +26°C° 0.1 mm 1 m/s 721 mmHg 93%
    23:00 +26°C° 0.1 mm 1 m/s 722 mmHg 93%

    27 Ianuarie, Duminică

    Timp Temperatura Precipitaţii Vânt Presiune Umiditate
    00:00 +24°C° 0.9 mm 0 m/s 721 mmHg 93%
    01:00 +24°C° 0.9 mm 0 m/s 721 mmHg 94%
    02:00 +24°C° 0.9 mm 0 m/s 721 mmHg 94%
    03:00 +23°C° 2.3 mm 0 m/s 721 mmHg 94%
    04:00 +25°C° 2.3 mm 1 m/s 721 mmHg 95%
    05:00 +25°C° 2.3 mm 1 m/s 721 mmHg 95%
    06:00 +26°C° 0 mm 1 m/s 721 mmHg 93%
    07:00 +27°C° 0 mm 1 m/s 721 mmHg 90%
    08:00 +27°C° 0 mm 1 m/s 721 mmHg 87%
    09:00 +28°C° 0 mm 2 m/s 721 mmHg 83%
    10:00 +29°C° 0 mm 3 m/s 721 mmHg 78%
    11:00 +32°C° 0 mm 4 m/s 721 mmHg 73%
    12:00 +33°C° 0 mm 4 m/s 721 mmHg 68%
    13:00 +34°C° 0 mm 5 m/s 720 mmHg 63%
    14:00 +35°C° 0 mm 5 m/s 720 mmHg 57%
    15:00 +35°C° 0 mm 5 m/s 719 mmHg 59%
    16:00 +35°C° 0 mm 5 m/s 719 mmHg 61%
    17:00 +35°C° 0 mm 5 m/s 719 mmHg 63%
    18:00 +33°C° 0 mm 4 m/s 719 mmHg 70%
    19:00 +31°C° 0 mm 3 m/s 719 mmHg 76%
    20:00 +29°C° 0 mm 2 m/s 719 mmHg 82%
    21:00 +29°C° 0 mm 2 m/s 720 mmHg 85%
    22:00 +28°C° 0 mm 1 m/s 720 mmHg 87%
    23:00 +28°C° 0 mm 1 m/s 720 mmHg 89%
    Arată mai mult